Location: Newark
(44.3681°N, 100.3364°W)
Time: 05:42:06
(UTC+00:00)

Envisat - Visible Passes

Search period start: 29 January 2020 00:00
Search period end: 08 February 2020 00:00
Orbit: 764 x 766 km, 98.1° (Epoch: 28 January)

Date Brightness Start Highest point End Pass type
(mag) Time Alt. Az. Time Alt. Az. Time Alt. Az.
29 Jan 5.7 01:39:55 10° SW 01:43:41 21° W 01:47:28 10° NW visible
29 Jan 6.1 12:07:59 10° NE 12:11:00 16° E 12:14:00 10° SE visible
30 Jan 4.3 01:01:48 10° S 01:06:37 44° W 01:11:30 10° NNW visible
30 Jan 3.8 13:08:42 10° NNE 13:13:44 57° E 13:18:43 10° S visible
31 Jan 3.0 00:24:42 10° SSE 00:29:47 87° ENE 00:34:54 10° NNW visible
31 Jan 6.3 02:07:41 10° WSW 02:09:28 12° W 02:11:16 10° WNW visible
31 Jan 5.3 12:32:28 10° NE 12:36:45 27° E 12:41:00 10° SSE visible
01 Feb 5.3 01:28:06 10° SSW 01:32:17 26° W 01:36:30 10° NW visible
01 Feb 6.3 11:57:32 10° ENE 11:59:34 12° E 12:01:34 10° ESE visible
02 Feb 3.8 00:50:20 10° S 00:55:18 55° W 01:00:18 10° NNW visible
02 Feb 4.3 12:57:30 10° NNE 13:02:24 45° E 13:07:15 10° S visible
03 Feb 3.0 00:13:29 10° SSE 00:18:30 70° ENE 00:23:35 10° N visible
03 Feb 6.1 01:55:10 10° SW 01:58:02 15° W 02:00:56 10° NW visible
03 Feb 5.7 12:21:30 10° NE 12:25:21 21° E 12:29:12 10° SE visible
04 Feb 4.9 01:16:24 10° SSW 01:20:55 32° W 01:25:27 10° NNW visible
04 Feb 3.2 13:22:50 10° NNE 13:27:56 78° ESE 13:33:01 10° S visible
05 Feb 3.4 00:38:56 10° S 00:43:59 70° WSW 00:49:04 10° NNW visible
05 Feb 4.8 12:46:21 10° NNE 12:51:03 36° E 12:55:42 10° SSE visible
06 Feb 5.8 01:43:04 10° SW 01:46:37 19° W 01:50:12 10° NW visible
06 Feb 6.1 12:10:39 10° NE 12:13:56 17° E 12:17:13 10° SE visible
07 Feb 4.5 01:04:48 10° SSW 01:09:33 40° W 01:14:20 10° NNW visible
07 Feb 3.6 13:11:34 10° NNE 13:16:38 62° E 13:21:39 10° S visible
